Location: La Garde-Adh�mar
(44.3955°N, 4.7578°E)
Time: 00:19:22
(UTC+00:00)

Daily predictions for brighter satellites

Satellite Brightness Start Highest point End
(mag) Time Altitude Azimuth Time Altitude Azimuth Time Altitude Azimuth
Cosmos 2219 Rocket 4.4 03:18:13 21° ENE 03:18:13 21° ENE 03:20:26 10° NE
Cosmos 2333 Rocket 4.3 03:20:48 21° ENE 03:20:48 21° ENE 03:22:59 10° NE
COSMOS 2428 4.2 03:39:22 33° ENE 03:39:22 33° ENE 03:43:17 10° NE
Cosmos 2360 Rocket 4.4 03:49:57 16° NNE 03:49:57 16° NNE 03:51:05 10° NNE
FALCON 9 R/B 4.1 04:12:46 16° S 04:12:46 16° S 04:14:08 10° SSE
Cosmos 1898 Rocket 4.2 04:12:47 50° ENE 04:12:47 50° ENE 04:17:43 10° SE
CZ-2C R/B 4.1 04:17:26 12° SSE 04:17:26 12° SSE 04:18:18 10° SE
Cosmos 1455 Rocket 4.2 04:22:39 41° E 04:22:39 41° E 04:26:34 10° NNE
SKYMED 2 4.5 04:24:46 10° SE 04:28:55 47° ENE 04:29:15 46° ENE
Cosmos 468 Rocket 3.9 04:37:50 88° S 04:37:54 90° ESE 04:43:14 10° NNE
METEOR-M 4.0 04:36:09 10° N 04:41:14 73° NW 04:41:14 73° NW
Cosmos 1461 3.2 04:42:03 79° E 04:42:03 79° E 04:46:41 10° NE
SJ-12 4.3 04:39:23 10° NNE 04:43:11 63° ENE 04:43:11 63° ENE
Cosmos 2278 Rocket 2.4 04:43:00 31° NNW 04:45:44 67° ENE 04:51:23 10° SE
Cosmos 1937 Rocket 3.7 04:43:44 35° N 04:45:57 70° ENE 04:51:10 10° SSE
FALCON 9 DEB 4.5 04:50:12 39° E 04:50:12 39° E 04:52:37 10° ENE
Atlas Centaur 2 4.4 04:45:10 17° SSW 04:49:19 27° SSE 04:56:04 10° ESE
USA 215 4.3 04:43:52 10° NE 04:49:23 30° N 04:50:54 27° NNW
Cosmos 44 Rocket 3.6 04:49:27 46° NNW 04:50:58 72° NE 04:56:10 10° SE
Cosmos 2237 Rocket 2.7 04:50:09 10° S 04:55:42 61° ESE 05:01:19 10° NNE
Cosmos 2219 Rocket 2.6 04:59:59 42° NW 04:59:59 42° NW 05:04:45 10° NNE
Cosmos 2333 Rocket 2.8 05:02:50 37° NW 05:02:50 37° NW 05:07:24 10° NNE
H-2A R/B 3.5 04:59:09 10° NNE 05:02:47 49° E 05:06:23 10° S
IRIDIUM 104 4.4 04:58:57 10° SSW 05:04:02 53° W 05:09:09 10° N
GEOS 3 Rocket 3.7 04:59:04 10° SE 05:04:25 80° NE 05:07:17 29° NNW
CZ-4B R/B 2.7 05:00:55 10° NNE 05:04:31 73° ESE 05:08:12 10° S
SL-8 R/B 3.6 05:04:16 61° W 05:05:02 78° SSW 05:09:52 10° ESE
Cosmos 921 Rocket 3.7 05:06:40 37° NNW 05:06:40 37° NNW 05:09:26 10° N
Lacrosse 5 rocket 1.8 05:06:23 44° N 05:07:01 49° NE 05:10:39 10° ESE
MOS 1 Rocket 3.3 05:03:12 10° SSE 05:08:14 85° ENE 05:13:00 10° N
Cosmos 1689 Rocket 2.8 05:06:49 10° SSE 05:09:38 50° ENE 05:09:47 49° ENE
NOSS 0 Rocket 3.8 05:04:03 10° SSW 05:10:14 83° WNW 05:16:28 10° NNE
Cosmos 540 Rocket 3.3 05:08:59 10° SSW 05:14:06 88° WNW 05:19:17 10° NNE
YAOGAN 6 3.8 05:11:24 10° NNE 05:14:59 44° E 05:18:32 10° S
COSMO-SKYMED 1 2.6 05:12:46 10° S 05:17:00 53° W 05:17:54 44° WNW
Cosmos 1241 Rocket 4.5 05:13:40 22° NW 05:18:14 83° WSW 05:24:45 10° SSE
Lacrosse 4 Rocket 3.1 05:15:08 10° S 05:18:56 34° ESE 05:22:52 10° NE
Cosmos 990 Rocket 4.5 05:21:08 35° W 05:21:13 35° WSW 05:25:51 10° SSW
COSMOS 2428 3.2 05:21:27 34° WNW 05:22:20 36° NW 05:27:35 10° NNE
Cosmos 1400 Rocket 3.3 05:19:52 10° S 05:23:53 63° E 05:28:00 10° NNE
ADEOS 4.1 05:22:45 10° N 05:27:29 36° WNW 05:29:54 24° WSW
SL-4 R/B 3.3 05:25:03 10° SSW 05:28:30 35° SE 05:32:12 10° ENE
Cosmos 1980 3.6 05:23:08 10° SSW 05:28:47 72° WNW 05:34:28 10° NNE
Cosmos 2360 Rocket 4.1 05:31:43 13° NNW 05:31:43 13° NNW 05:33:16 10° NNW
PSLV R/B 4.4 05:27:24 10° NNE 05:31:21 61° ESE 05:35:20 10° S
Cosmos 1544 Rocket 3.6 05:29:17 10° SSW 05:33:29 50° WNW 05:37:42 10° N
BREEZE M DEB (TANK) 3.5 05:33:25 13° SSW 05:34:58 27° SE 05:37:53 10° ENE
ERS-2 2.5 05:32:44 10° S 05:36:10 39° W 05:36:48 35° WNW
Cosmos 1464 Rocket 4.2 05:30:22 10° SSW 05:36:12 45° WNW 05:42:05 10° N
Meteor PRIRODA 3.8 05:35:03 10° N 05:38:30 44° WNW 05:41:57 10° SW
Cosmos 1763 Rocket 4.3 05:42:48 23° W 05:44:33 28° WNW 05:49:05 10° N
CENTAUR R/B 4.0 05:40:23 10° S 05:45:38 38° ESE 05:51:44 10° NE
CZ-4B DEB 4.5 05:41:51 10° NNE 05:47:27 74° ESE 05:52:59 10° S
Okean 1-7 Rocket 4.4 05:46:14 20° NW 05:48:20 29° W 05:52:11 10° SSW
Cosmos 1908 3.3 05:46:45 10° SSW 05:50:26 48° WNW 05:54:09 10° N
Cosmos 841 Rocket 3.7 05:46:23 10° SW 05:51:19 46° WNW 05:56:17 10° N
Cosmos 2228 4.1 05:47:54 10° SSE 05:51:59 47° E 05:56:04 10° NNE
Cosmos 1626 Rocket 3.8 05:47:59 10° NNW 05:52:17 48° W 05:56:34 10° SSW
Cosmos 1953 3.0 05:49:37 10° SW 05:53:09 30° WNW 05:56:43 10° NNW
CZ-2C R/B 3.3 05:52:24 10° SW 05:55:30 20° S 05:58:26 10° SE
SJ-7 4.5 05:51:52 10° N 05:55:57 55° WNW 05:59:56 10° SSW
ATLAS CENTAUR R/B 1.4 05:53:02 10° SSW 05:56:42 69° ESE 06:00:22 10° NE
Meteor 1-16 Rocket 4.5 05:54:18 10° SSW 06:00:01 51° WNW 06:05:49 10° N
Cosmos 1455 Rocket 4.4 05:59:59 18° W 06:00:29 18° WNW 06:03:34 10° NNW
H-2A R/B 2.9 05:56:33 10° NNE 06:01:04 74° ESE 06:05:33 10° S
BREEZE-M DEB (TANK) 3.3 05:55:17 15° WNW 06:01:37 49° SW 06:04:40 10° SSE
USA 238 DEB 4.1 05:55:45 10° SSW 06:02:12 66° ESE 06:08:58 10° NE
USA 238 4.1 05:55:53 10° SSW 06:02:20 65° ESE 06:09:05 10° NE
Cosmos 1092 Rocket 4.0 05:57:45 10° NNW 06:03:50 64° W 06:09:55 10° S
Cosmos 972 Rocket 4.4 05:58:27 10° SSW 06:05:01 86° WNW 06:10:53 10° NNE
Cosmos 2098 Rocket 3.7 06:00:41 10° N 06:06:58 85° E 06:11:54 10° S
Cosmos 1570 Rocket 4.4 06:04:32 10° SW 06:09:26 40° WNW 06:14:22 10° N
Cosmos 2298 Rocket 4.0 06:04:10 10° NNW 06:09:31 77° WSW 06:14:50 10° SSE
USA 307 3.3 06:08:44 10° SW 06:12:55 66° SE 06:17:07 10° ENE
Cosmos 1315 Rocket 3.0 06:09:29 10° S 06:13:23 76° E 06:17:18 10° NNE
Cosmos 2279 Rocket 4.3 06:07:26 10° S 06:13:38 73° E 06:19:54 10° NNE
Cosmos 1758 Rocket 3.6 06:10:37 10° NNW 06:15:07 68° W 06:19:32 10° S
Cosmos 1340 3.6 06:13:08 10° NNW 06:16:21 27° W 06:19:33 10° SSW
Cosmos 2058 Rocket 4.5 06:17:26 10° SSE 06:21:34 43° E 06:25:46 10° NNE
USA 308 3.1 06:17:27 10° SW 06:21:40 76° SE 06:25:53 10° ENE
USA 305 3.0 06:17:29 10° SW 06:21:44 80° SE 06:25:59 10° NE
Cosmos 2369 Rocket 3.3 06:18:22 10° NNW 06:23:41 42° ENE 06:28:57 10° SE
Okean O Rocket 1.6 06:19:58 10° NNE 06:24:23 89° ESE 06:28:43 10° SSW
FALCON 9 DEB 4.1 06:23:26 11° W 06:26:23 30° NNW 06:29:29 10° NE
Meteor 1-11 4.3 06:20:56 10° NNW 06:26:23 56° W 06:31:49 10° S
SL-16 R/B 2.2 06:22:13 10° SSW 06:27:50 72° WNW 06:33:31 10° NNE
Cosmos 2278 Rocket 3.6 06:25:23 10° WNW 06:29:13 19° W 06:33:02 10° SW
Cosmos 1125 Rocket 3.5 06:23:57 10° NNW 06:29:16 77° WSW 06:34:34 10° SSE
Cosmos 1634 Rocket 4.1 06:23:28 10° SSW 06:29:29 55° WNW 06:35:33 10° N
CZ-4B R/B 3.3 06:24:16 10° NNE 06:29:58 85° WNW 06:35:33 10° SSW
NOAA 12 4.1 06:25:25 10° N 06:30:40 66° WNW 06:35:54 10° SSW
USA 215 4.3 06:25:34 10° ENE 06:31:17 34° NNE 06:37:01 10° NW
Envisat 3.7 06:27:28 10° N 06:31:57 32° WNW 06:36:25 10° SW
Cosmos 1943 Rocket 2.4 06:26:52 10° NNW 06:32:35 80° ENE 06:38:15 10° SSE
Cosmos 1726 Rocket 3.5 06:28:38 10° S 06:32:57 86° W 06:37:17 10° N
USA 306 2.9 06:29:22 10° SW 06:33:38 85° NW 06:37:54 10° NE
CZ-2C R/B 2.8 06:28:48 10° S 06:33:53 52° W 06:39:04 10° NNW
H-2A R/B 4.4 06:34:46 10° NW 06:36:31 13° WNW 06:38:16 10° W
Cosmos 1346 Rocket 3.2 06:33:52 10° NNW 06:37:37 41° W 06:41:21 10° SSW
Cosmos 2237 Rocket 3.2 06:35:38 10° WSW 06:40:12 25° NW 06:44:49 10° N
PAYLOAD B 4.5 06:36:14 10° N 06:41:36 50° WNW 06:46:58 10° SW
